Weather History for Abilene, TX

Change the Weather History Date:

Saturday, April 14, 2012

  Actual Average Record
Temperature  
Mean Temperature 78 °F 64 °F  
Max Temperature 86 °F 77 °F 96 °F (1982)
Min Temperature 70 °F 51 °F 32 °F (1997)
Degree Days  
Heating Degree Days 0 4  
Month to date heating degree days 3 71  
Since 1 July heating degree days 2070 2502  
Cooling Degree Days 13 3  
Month to date cooling degree days 86 34  
Year to date cooling degree days 169 68  
Growing Degree Days 28 (Base 50)    
Moisture  
Dew Point 65 °F    
Average Humidity 66    
Maximum Humidity 84    
Minimum Humidity 48    
Precipitation  
Precipitation 0.00 in 0.05 in 1.15 in (1981)
Month to date precipitation 0.42 0.65  
Year to date precipitation 6.10 4.77  
Sea Level Pressure  
Sea Level Pressure 29.64 in    
Wind  
Wind Speed 25 mph (SSE)    
Max Wind Speed 35 mph    
Max Gust Speed 45 mph    
Visibility 10 miles    
Events      
T = Trace of Precipitation, MM = Missing Value Source: NWS Daily Summary

Daily Weather History Graph

Daily Weather History Graph

Search for Another Location

Airport:

Trip Planner

Search our weather history database for the weather conditions in past years. The results will help you decide how hot, cold, wet, or windy it might be!

Date:

Astronomy

Apr. 14, 2012 Rise Set
Actual Time 7:10 AM CDT 8:08 PM CDT
Civil Twilight 6:44 AM CDT 8:33 PM CDT
Nautical Twilight 6:15 AM CDT 9:03 PM CDT
Astronomical Twilight 5:44 AM CDT 9:34 PM CDT
Moon 3:13 AM CDT (4/14) 2:23 PM CDT (4/14)
Length of Visible Light 13h 48m
Length of Day
12h 58m
Last Quarter, 37% of the Moon is Illuminated
Apr 14
Last Quarter
Apr 21
New
Apr 29
First Quarter
May 5
Full
May 12
Last Quarter

Hourly Weather History & Observations

Time (CDT) Temp. Heat Index Dew Point Humidity Pressure Visibility Wind Dir Wind Speed Gust Speed Precip Events Conditions
12:52 AM 71.1 °F - 66.0 °F 84% 29.73 in 10.0 mi SSE 16.1 mph - N/A   Clear
1:52 AM 71.1 °F - 66.0 °F 84% 29.71 in 10.0 mi SSE 20.7 mph 28.8 mph N/A   Scattered Clouds
2:52 AM 71.1 °F - 66.0 °F 84% 29.69 in 10.0 mi SSE 20.7 mph 27.6 mph N/A   Mostly Cloudy
3:52 AM 71.1 °F - 66.0 °F 84% 29.67 in 10.0 mi South 19.6 mph 33.4 mph N/A   Mostly Cloudy
4:52 AM 70.0 °F - 64.9 °F 84% 29.65 in 10.0 mi SSE 20.7 mph 33.4 mph N/A   Partly Cloudy
5:52 AM 71.1 °F - 64.9 °F 81% 29.66 in 10.0 mi South 21.9 mph 31.1 mph N/A   Mostly Cloudy
6:52 AM 70.0 °F - 64.9 °F 84% 29.66 in 10.0 mi South 24.2 mph 35.7 mph N/A   Clear
7:52 AM 71.1 °F - 64.0 °F 78% 29.68 in 10.0 mi South 24.2 mph 33.4 mph N/A   Partly Cloudy
8:52 AM 73.0 °F - 64.0 °F 73% 29.70 in 10.0 mi South 21.9 mph 31.1 mph N/A   Scattered Clouds
9:44 AM 73.4 °F - 64.4 °F 73% 29.78 in 10.0 mi South 23.0 mph 31.1 mph N/A   Overcast
9:52 AM 73.0 °F - 64.0 °F 73% 29.71 in 10.0 mi South 23.0 mph 33.4 mph N/A   Overcast
10:52 AM 75.0 °F - 64.0 °F 69% 29.71 in 10.0 mi South 24.2 mph 34.5 mph N/A   Overcast
11:03 AM 75.2 °F - 64.4 °F 69% 29.78 in 10.0 mi South 24.2 mph 39.1 mph N/A   Mostly Cloudy
11:52 AM 77.0 °F - 64.0 °F 64% 29.71 in 10.0 mi South 31.1 mph 39.1 mph N/A   Mostly Cloudy
12:52 PM 79.0 °F - 64.9 °F 62% 29.68 in 10.0 mi South 27.6 mph 38.0 mph N/A   Mostly Cloudy
1:52 PM 81.0 °F 82.5 °F 64.0 °F 56% 29.64 in 10.0 mi South 25.3 mph 36.8 mph N/A   Mostly Cloudy
2:52 PM 84.0 °F 84.9 °F 63.0 °F 49% 29.60 in 10.0 mi South 26.5 mph 38.0 mph N/A   Scattered Clouds
3:52 PM 84.9 °F 85.9 °F 63.0 °F 48% 29.55 in 10.0 mi South 32.2 mph 42.6 mph N/A   Partly Cloudy
4:52 PM 84.9 °F 85.4 °F 62.1 °F 46% 29.52 in 10.0 mi South 29.9 mph 40.3 mph N/A   Clear
5:52 PM 84.9 °F 85.4 °F 62.1 °F 46% 29.51 in 10.0 mi SSE 26.5 mph 42.6 mph N/A   Partly Cloudy
6:52 PM 82.0 °F 83.1 °F 63.0 °F 52% 29.52 in 10.0 mi South 27.6 mph 40.3 mph N/A   Partly Cloudy
7:52 PM 79.0 °F - 64.0 °F 60% 29.53 in 10.0 mi SSE 25.3 mph 34.5 mph N/A   Scattered Clouds
8:52 PM 75.0 °F - 66.0 °F 73% 29.56 in 10.0 mi SSE 23.0 mph 31.1 mph N/A   Clear
9:52 PM 73.9 °F - 66.0 °F 76% 29.57 in 10.0 mi SSE 25.3 mph 34.5 mph N/A   Scattered Clouds
10:04 PM 73.4 °F - 66.2 °F 78% 29.65 in 10.0 mi SSE 24.2 mph 34.5 mph N/A   Mostly Cloudy
10:14 PM 73.4 °F - 66.2 °F 78% 29.66 in 10.0 mi SSE 25.3 mph 35.7 mph N/A   Scattered Clouds
10:31 PM 73.4 °F - 66.2 °F 78% 29.66 in 10.0 mi SSE 21.9 mph 29.9 mph N/A   Mostly Cloudy
10:52 PM 73.0 °F - 66.0 °F 79% 29.58 in 10.0 mi SSE 23.0 mph 36.8 mph N/A   Overcast
11:32 PM 73.4 °F - 66.2 °F 78% 29.64 in 10.0 mi SSE 27.6 mph 35.7 mph N/A   Overcast
11:52 PM 73.0 °F - 66.0 °F 79% 29.56 in 10.0 mi SSE 26.5 mph 35.7 mph N/A   Overcast